Retour au catalogue

COSMOS 1275 DEB

ActifPO
NORAD 42116·DEBRIS·🇷🇺 Russia

Lancé Jun 4, 1981 depuis Plesetsk Cosmodrome

Loading…

Prochains Passages (prochaines 24 heures)

TLE

VieillissantSource: Space-Track

Époque: Sep 4, 2026, 20:15 UTC

1 42116U 81053QC  26247.84405183  .00002538  00000-0  61313-3 0  9990
2 42116  83.1171 282.9943 0020415 224.6773 259.0330 14.52692369917621

Suivez COSMOS 1275 DEB en temps réel avec AllMySat

Download on the App Store